QPF
0.00 0.00 0.00 0.00 0.00 0.00 0.00 0.00 0.00 0.00 0.01 0.01 0.01 0.01 0.01 0.00 0.00 0.00 0.00 0.00 0.01 0.00 0.00 0.00 0.01 0.01 0.01 0.00 0.00 0.00 0.01 0.01 0.01 0.02 0.02 0.03 0.02 0.02 0.02 0.02 0.03 0.03 0.03 0.04
0.00 0.00 0.00 0.00 0.00 0.00 0.00 0.00 0.00 0.00 0.01 0.00 0.00 0.01 0.01 0.00 0.00 0.00 0.01 0.00 0.00 0.00 0.00 0.00 0.00 0.01 0.00 0.01 0.00 0.00 0.01 0.01 0.02 0.02 0.03 0.03 0.03 0.03 0.03 0.03 0.03 0.03 0.03 0.04
0.00 0.00 0.00 0.01 0.00 0.00 0.00 0.00 0.00 0.01 0.01 0.00 0.01 0.01 0.00 0.00 0.00 0.00 0.01 0.00 0.00 0.00 0.01 0.01 0.00 0.00 0.00 0.00 0.00 0.00 0.01 0.01 0.02 0.03 0.03 0.03 0.02 0.03 0.03 0.03 0.04 0.04 0.04 0.05
0.01 0.01 0.01 0.01 0.00 0.00 0.00 0.00 0.00 0.01 0.01 0.00 0.01 0.00 0.00 0.00 0.00 0.01 0.01 0.00 0.00 0.01 0.01 0.01 0.01 0.00 0.00 0.00 0.00 0.00 0.01 0.01 0.02 0.03 0.02 0.02 0.02 0.02 0.03 0.04 0.05 0.05 0.04 0.04
0.02 0.03 0.02 0.01 0.00 0.00 0.00 0.00 0.00 0.01 0.01 0.00 0.00 0.00 0.01 0.02 0.03 0.02 0.01 0.01 0.01 0.01 0.00 0.00 0.01 0.00 0.00 0.01 0.01 0.01 0.01 0.01 0.02 0.02 0.02 0.02 0.02 0.03 0.04 0.05 0.06 0.05 0.05 0.05
0.03 0.05 0.05 0.04 0.02 0.01 0.00 0.01 0.01 0.02 0.01 0.01 0.01 0.01 0.01 0.02 0.02 0.02 0.02 0.02 0.01 0.00 0.00 0.00 0.00 0.00 0.00 0.01 0.01 0.01 0.02 0.03 0.03 0.03 0.03 0.03 0.04 0.06 0.07 0.09 0.08 0.07 0.06 0.06
0.02 0.02 0.04 0.04 0.02 0.01 0.02 0.02 0.01 0.02 0.02 0.01 0.02 0.01 0.01 0.01 0.01 0.01 0.02 0.02 0.01 0.01 0.00 0.00 0.01 0.01 0.01 0.01 0.02 0.02 0.03 0.03 0.04 0.05 0.06 0.07 0.08 0.08 0.09 0.10 0.11 0.12 0.11 0.10
0.01 0.01 0.02 0.01 0.01 0.03 0.02 0.02 0.02 0.02 0.01 0.01 0.02 0.01 0.01 0.01 0.01 0.02 0.02 0.02 0.01 0.01 0.02 0.02 0.02 0.02 0.02 0.02 0.03 0.03 0.04 0.05 0.07 0.07 0.07 0.08 0.08 0.08 0.09 0.09 0.08 0.09 0.10 0.10
0.02 0.02 0.02 0.02 0.02 0.04 0.03 0.02 0.02 0.02 0.02 0.01 0.01 0.01 0.01 0.02 0.02 0.02 0.03 0.03 0.02 0.02 0.03 0.03 0.03 0.03 0.02 0.02 0.02 0.02 0.04 0.05 0.06 0.08 0.10 0.10 0.08 0.09 0.09 0.09 0.10 0.09 0.07 0.08
0.03 0.01 0.01 0.02 0.01 0.02 0.01 0.02 0.01 0.02 0.02 0.01 0.01 0.01 0.02 0.02 0.02 0.02 0.04 0.04 0.03 0.04 0.04 0.03 0.02 0.02 0.02 0.02 0.02 0.03 0.03 0.04 0.07 0.09 0.10 0.08 0.07 0.07 0.08 0.07 0.08 0.07 0.06 0.05
0.04 0.02 0.02 0.03 0.02 0.02 0.02 0.01 0.01 0.01 0.01 0.02 0.03 0.03 0.03 0.03 0.04 0.04 0.04 0.04 0.06 0.05 0.04 0.03 0.02 0.03 0.02 0.02 0.02 0.03 0.03 0.05 0.09 0.11 0.10 0.09 0.08 0.07 0.06 0.05 0.05 0.05 0.04 0.05
0.07 0.03 0.03 0.04 0.03 0.03 0.03 0.04 0.02 0.02 0.02 0.02 0.04 0.04 0.05 0.06 0.06 0.05 0.03 0.04 0.06 0.05 0.04 0.02 0.02 0.02 0.02 0.02 0.03 0.04 0.05 0.08 0.11 0.15 0.16 0.12 0.10 0.09 0.08 0.07 0.06 0.05 0.05 0.05
0.06 0.05 0.03 0.02 0.02 0.04 0.04 0.03 0.03 0.02 0.03 0.03 0.05 0.06 0.07 0.07 0.06 0.04 0.03 0.04 0.05 0.04 0.03 0.03 0.03 0.04 0.04 0.04 0.05 0.08 0.10 0.13 0.16 0.17 0.17 0.16 0.12 0.09 0.07 0.06 0.06 0.06 0.06 0.05
0.07 0.05 0.04 0.02 0.03 0.04 0.03 0.02 0.01 0.02 0.03 0.04 0.05 0.06 0.06 0.05 0.04 0.03 0.03 0.03 0.03 0.03 0.03 0.04 0.05 0.05 0.05 0.06 0.06 0.08 0.10 0.09 0.09 0.08 0.08 0.10 0.11 0.10 0.07 0.06 0.05 0.05 0.05 0.04
0.10 0.06 0.05 0.02 0.02 0.02 0.02 0.02 0.02 0.02 0.04 0.05 0.04 0.03 0.02 0.02 0.03 0.03 0.02 0.02 0.03 0.03 0.03 0.03 0.03 0.03 0.04 0.04 0.05 0.06 0.06 0.06 0.04 0.04 0.05 0.07 0.10 0.11 0.11 0.08 0.06 0.05 0.04 0.03
0.05 0.02 0.02 0.02 0.02 0.02 0.01 0.01 0.02 0.03 0.04 0.04 0.04 0.03 0.02 0.03 0.04 0.03 0.02 0.03 0.03 0.03 0.02 0.01 0.02 0.03 0.03 0.04 0.06 0.05 0.04 0.03 0.04 0.04 0.04 0.05 0.08 0.10 0.11 0.09 0.07 0.05 0.04 0.04
0.02 0.02 0.03 0.03 0.03 0.03 0.03 0.03 0.04 0.05 0.04 0.03 0.03 0.03 0.04 0.04 0.04 0.03 0.03 0.03 0.03 0.03 0.03 0.02 0.02 0.02 0.03 0.04 0.05 0.05 0.04 0.03 0.03 0.03 0.02 0.03 0.05 0.07 0.09 0.07 0.06 0.04 0.04 0.05
0.02 0.02 0.03 0.03 0.03 0.04 0.05 0.05 0.06 0.07 0.06 0.03 0.03 0.04 0.06 0.05 0.05 0.04 0.03 0.02 0.03 0.04 0.04 0.03 0.02 0.02 0.02 0.03 0.04 0.05 0.05 0.04 0.04 0.03 0.03 0.03 0.04 0.05 0.11 0.10 0.06 0.06 0.05 0.06
0.01 0.01 0.02 0.02 0.03 0.05 0.06 0.08 0.10 0.10 0.06 0.04 0.04 0.06 0.06 0.05 0.05 0.05 0.03 0.03 0.03 0.03 0.03 0.03 0.03 0.03 0.02 0.02 0.03 0.04 0.03 0.03 0.03 0.04 0.04 0.05 0.04 0.04 0.08 0.11 0.10 0.09 0.07 0.06
0.02 0.02 0.02 0.02 0.04 0.06 0.08 0.09 0.08 0.07 0.05 0.06 0.06 0.07 0.06 0.06 0.06 0.05 0.04 0.03 0.03 0.02 0.02 0.02 0.02 0.03 0.03 0.03 0.03 0.04 0.03 0.03 0.02 0.03 0.04 0.05 0.05 0.05 0.06 0.07 0.07 0.07 0.06 0.06
0.05 0.04 0.03 0.04 0.05 0.08 0.10 0.10 0.08 0.07 0.07 0.08 0.08 0.08 0.07 0.07 0.06 0.05 0.04 0.03 0.03 0.02 0.02 0.02 0.02 0.02 0.02 0.03 0.03 0.03 0.03 0.03 0.02 0.02 0.03 0.03 0.04 0.05 0.05 0.05 0.05 0.04 0.04 0.04
0.06 0.05 0.04 0.06 0.07 0.09 0.10 0.10 0.08 0.07 0.08 0.08 0.08 0.07 0.07 0.06 0.05 0.04 0.04 0.04 0.02 0.01 0.02 0.02 0.02 0.02 0.02 0.02 0.03 0.02 0.03 0.03 0.02 0.02 0.02 0.02 0.03 0.04 0.04 0.03 0.03 0.03 0.03 0.03
0.05 0.04 0.04 0.07 0.08 0.07 0.07 0.07 0.06 0.07 0.07 0.07 0.07 0.06 0.06 0.05 0.04 0.04 0.04 0.02 0.01 0.01 0.01 0.01 0.01 0.01 0.02 0.02 0.03 0.03 0.03 0.03 0.02 0.02 0.01 0.01 0.01 0.01 0.02 0.02 0.02 0.02 0.02 0.02
0.04 0.04 0.05 0.07 0.08 0.07 0.06 0.05 0.06 0.06 0.06 0.06 0.06 0.05 0.05 0.05 0.04 0.03 0.02 0.01 0.01 0.01 0.01 0.01 0.01 0.01 0.02 0.02 0.02 0.03 0.03 0.03 0.02 0.01 0.01 0.00 0.01 0.01 0.01 0.01 0.02 0.02 0.02 0.02
0.03 0.04 0.05 0.06 0.08 0.07 0.06 0.05 0.06 0.06 0.06 0.06 0.05 0.05 0.04 0.04 0.03 0.02 0.01 0.01 0.01 0.01 0.02 0.01 0.01 0.02 0.03 0.03 0.02 0.02 0.03 0.03 0.02 0.01 0.01 0.01 0.01 0.01 0.02 0.02 0.02 0.02 0.02 0.03
0.04 0.04 0.05 0.06 0.06 0.06 0.04 0.04 0.05 0.05 0.05 0.05 0.06 0.05 0.05 0.03 0.03 0.02 0.02 0.02 0.01 0.01 0.01 0.01 0.01 0.02 0.02 0.02 0.03 0.03 0.03 0.03 0.03 0.02 0.02 0.02 0.02 0.02 0.02 0.02 0.02 0.02 0.03 0.02
0.05 0.05 0.05 0.05 0.05 0.05 0.04 0.03 0.04 0.04 0.05 0.05 0.06 0.07 0.07 0.06 0.05 0.04 0.04 0.03 0.02 0.02 0.02 0.02 0.02 0.02 0.03 0.03 0.02 0.02 0.02 0.02 0.03 0.03 0.03 0.03 0.04 0.03 0.03 0.03 0.03 0.03 0.03 0.03
MSLP
1006.04 1005.72 1005.28 1004.74 1004.14 1003.49 1002.83 1002.18 1001.57 1001.01 1000.54 1000.16 999.88 999.68 999.54 999.43 999.29 999.09 998.79 998.36 997.81 997.16 996.49 995.85 995.34 995.03 994.99 995.25 995.82 996.65 997.68 998.84 1000.04 1001.20 1002.27 1003.19 1003.95 1004.58 1005.10 1005.53 1005.93 1006.31 1006.69 1007.09
1006.16 1005.82 1005.32 1004.69 1003.98 1003.23 1002.47 1001.77 1001.15 1000.65 1000.28 1000.03 999.90 999.85 999.83 999.78 999.67 999.44 999.06 998.52 997.84 997.08 996.29 995.56 994.97 994.60 994.50 994.71 995.22 995.99 996.97 998.07 999.23 1000.37 1001.43 1002.37 1003.18 1003.86 1004.43 1004.92 1005.36 1005.77 1006.17 1006.57
1006.15 1005.82 1005.32 1004.67 1003.92 1003.13 1002.34 1001.62 1001.01 1000.54 1000.22 1000.05 999.98 999.98 999.98 999.93 999.77 999.47 998.99 998.36 997.60 996.76 995.93 995.18 994.59 994.22 994.13 994.34 994.83 995.56 996.48 997.52 998.61 999.69 1000.70 1001.62 1002.43 1003.14 1003.75 1004.28 1004.76 1005.21 1005.63 1006.05
1006.07 1005.77 1005.30 1004.67 1003.94 1003.15 1002.38 1001.67 1001.07 1000.62 1000.31 1000.14 1000.06 1000.03 999.97 999.84 999.58 999.17 998.60 997.89 997.07 996.22 995.40 994.70 994.18 993.90 993.87 994.13 994.64 995.35 996.23 997.20 998.21 999.20 1000.15 1001.02 1001.80 1002.50 1003.12 1003.68 1004.20 1004.68 1005.14 1005.59
1005.96 1005.68 1005.24 1004.65 1003.96 1003.21 1002.46 1001.78 1001.20 1000.74 1000.42 1000.21 1000.07 999.94 999.77 999.51 999.13 998.60 997.93 997.15 996.31 995.49 994.74 994.15 993.76 993.60 993.70 994.06 994.62 995.36 996.21 997.12 998.06 998.97 999.83 1000.62 1001.36 1002.03 1002.65 1003.22 1003.77 1004.29 1004.79 1005.29
1005.83 1005.54 1005.11 1004.54 1003.88 1003.16 1002.45 1001.78 1001.21 1000.74 1000.38 1000.10 999.87 999.63 999.34 998.94 998.43 997.79 997.04 996.23 995.41 994.66 994.02 993.58 993.35 993.37 993.62 994.10 994.76 995.54 996.40 997.29 998.16 999.00 999.78 1000.51 1001.18 1001.82 1002.42 1003.00 1003.57 1004.12 1004.67 1005.21
1005.68 1005.33 1004.85 1004.27 1003.60 1002.89 1002.19 1001.53 1000.94 1000.45 1000.05 999.71 999.39 999.05 998.65 998.15 997.54 996.83 996.05 995.25 994.49 993.83 993.34 993.06 993.02 993.22 993.65 994.28 995.05 995.90 996.79 997.68 998.52 999.30 1000.03 1000.70 1001.32 1001.92 1002.51 1003.09 1003.67 1004.25 1004.83 1005.41
1005.48 1005.01 1004.45 1003.79 1003.07 1002.33 1001.60 1000.92 1000.32 999.80 999.35 998.96 998.58 998.18 997.72 997.17 996.53 995.82 995.07 994.33 993.66 993.14 992.81 992.71 992.85 993.23 993.83 994.60 995.48 996.42 997.36 998.26 999.09 999.85 1000.55 1001.18 1001.77 1002.34 1002.91 1003.49 1004.08 1004.68 1005.28 1005.89
1005.23 1004.60 1003.89 1003.12 1002.31 1001.49 1000.70 999.97 999.33 998.77 998.30 997.89 997.49 997.09 996.63 996.11 995.52 994.88 994.22 993.60 993.08 992.71 992.54 992.61 992.92 993.46 994.20 995.09 996.06 997.07 998.06 998.98 999.83 1000.59 1001.26 1001.88 1002.45 1003.01 1003.57 1004.14 1004.73 1005.33 1005.95 1006.56
1004.93 1004.14 1003.27 1002.36 1001.42 1000.49 999.60 998.80 998.11 997.52 997.03 996.62 996.25 995.90 995.52 995.10 994.63 994.13 993.63 993.18 992.84 992.64 992.64 992.86 993.30 993.96 994.79 995.76 996.79 997.84 998.85 999.79 1000.65 1001.41 1002.08 1002.69 1003.26 1003.81 1004.36 1004.93 1005.51 1006.10 1006.71 1007.31
1004.66 1003.72 1002.70 1001.63 1000.55 999.50 998.51 997.63 996.86 996.24 995.74 995.36 995.05 994.80 994.55 994.29 994.01 993.71 993.42 993.18 993.03 993.01 993.16 993.50 994.03 994.75 995.62 996.60 997.63 998.67 999.68 1000.61 1001.46 1002.21 1002.89 1003.49 1004.05 1004.60 1005.14 1005.69 1006.26 1006.84 1007.42 1007.99
1004.52 1003.46 1002.33 1001.14 999.94 998.77 997.67 996.70 995.87 995.21 994.71 994.36 994.14 994.00 993.91 993.85 993.79 993.72 993.67 993.65 993.69 993.83 994.11 994.53 995.10 995.82 996.66 997.59 998.57 999.54 1000.49 1001.37 1002.18 1002.91 1003.56 1004.15 1004.71 1005.24 1005.77 1006.31 1006.85 1007.40 1007.95 1008.48
1004.57 1003.47 1002.28 1001.02 999.73 998.48 997.30 996.26 995.37 994.68 994.17 993.86 993.71 993.69 993.76 993.88 994.04 994.20 994.37 994.55 994.77 995.05 995.41 995.87 996.43 997.10 997.85 998.68 999.54 1000.40 1001.24 1002.03 1002.76 1003.43 1004.04 1004.61 1005.14 1005.66 1006.17 1006.68 1007.20 1007.72 1008.23 1008.71
1004.87 1003.80 1002.61 1001.35 1000.04 998.75 997.54 996.44 995.52 994.80 994.29 994.00 993.90 993.97 994.17 994.45 994.78 995.13 995.48 995.83 996.19 996.56 996.97 997.42 997.93 998.50 999.12 999.80 1000.50 1001.20 1001.90 1002.56 1003.19 1003.78 1004.33 1004.85 1005.35 1005.84 1006.33 1006.81 1007.30 1007.79 1008.26 1008.70
1005.39 1004.42 1003.32 1002.12 1000.86 999.59 998.39 997.29 996.36 995.62 995.10 994.82 994.75 994.87 995.14 995.52 995.96 996.44 996.91 997.37 997.81 998.23 998.64 999.05 999.48 999.92 1000.40 1000.90 1001.42 1001.95 1002.48 1003.00 1003.51 1004.00 1004.48 1004.94 1005.39 1005.85 1006.30 1006.76 1007.22 1007.67 1008.11 1008.51
1006.07 1005.25 1004.29 1003.22 1002.07 1000.90 999.76 998.71 997.79 997.06 996.54 996.24 996.17 996.29 996.58 996.99 997.48 998.00 998.53 999.04 999.50 999.92 1000.30 1000.64 1000.97 1001.28 1001.60 1001.93 1002.28 1002.64 1003.01 1003.39 1003.78 1004.17 1004.56 1004.96 1005.37 1005.79 1006.21 1006.64 1007.06 1007.48 1007.88 1008.25
1006.77 1006.14 1005.36 1004.48 1003.50 1002.47 1001.45 1000.49 999.64 998.94 998.42 998.11 998.00 998.09 998.34 998.72 999.18 999.68 1000.19 1000.68 1001.12 1001.50 1001.82 1002.09 1002.32 1002.52 1002.70 1002.89 1003.08 1003.30 1003.53 1003.79 1004.07 1004.38 1004.70 1005.04 1005.40 1005.78 1006.16 1006.55 1006.94 1007.33 1007.69 1008.02
1007.37 1006.93 1006.37 1005.69 1004.91 1004.08 1003.23 1002.40 1001.64 1001.00 1000.50 1000.17 1000.03 1000.05 1000.22 1000.52 1000.90 1001.33 1001.77 1002.19 1002.56 1002.88 1003.14 1003.33 1003.48 1003.59 1003.67 1003.75 1003.84 1003.95 1004.09 1004.26 1004.46 1004.70 1004.97 1005.26 1005.58 1005.92 1006.26 1006.61 1006.96 1007.30 1007.61 1007.91
1007.76 1007.50 1007.13 1006.67 1006.12 1005.50 1004.83 1004.17 1003.54 1002.98 1002.52 1002.18 1001.99 1001.95 1002.02 1002.21 1002.48 1002.80 1003.14 1003.47 1003.76 1004.01 1004.20 1004.34 1004.43 1004.49 1004.52 1004.54 1004.58 1004.63 1004.71 1004.83 1004.99 1005.18 1005.41 1005.66 1005.95 1006.24 1006.55 1006.85 1007.15 1007.44 1007.70 1007.94
1007.90 1007.78 1007.59 1007.33 1006.98 1006.56 1006.10 1005.60 1005.11 1004.65 1004.25 1003.93 1003.71 1003.60 1003.59 1003.67 1003.82 1004.02 1004.25 1004.49 1004.70 1004.89 1005.03 1005.14 1005.21 1005.24 1005.26 1005.27 1005.29 1005.33 1005.40 1005.50 1005.63 1005.80 1006.00 1006.23 1006.48 1006.74 1007.00 1007.25 1007.50 1007.73 1007.93 1008.11
1007.82 1007.80 1007.75 1007.63 1007.46 1007.22 1006.93 1006.60 1006.24 1005.89 1005.56 1005.27 1005.05 1004.89 1004.81 1004.80 1004.86 1004.97 1005.10 1005.26 1005.41 1005.55 1005.67 1005.77 1005.84 1005.89 1005.93 1005.96 1006.00 1006.05 1006.12 1006.22 1006.35 1006.51 1006.70 1006.90 1007.12 1007.34 1007.55 1007.76 1007.95 1008.12 1008.26 1008.39
1007.61 1007.64 1007.66 1007.65 1007.60 1007.49 1007.34 1007.14 1006.91 1006.66 1006.41 1006.17 1005.96 1005.79 1005.68 1005.62 1005.61 1005.65 1005.72 1005.83 1005.94 1006.07 1006.18 1006.29 1006.38 1006.46 1006.53 1006.60 1006.67 1006.75 1006.84 1006.95 1007.09 1007.24 1007.41 1007.59 1007.78 1007.97 1008.14 1008.31 1008.45 1008.56 1008.65 1008.72
1007.38 1007.41 1007.45 1007.48 1007.49 1007.47 1007.41 1007.31 1007.17 1007.01 1006.83 1006.65 1006.48 1006.33 1006.22 1006.14 1006.11 1006.13 1006.18 1006.26 1006.37 1006.49 1006.62 1006.75 1006.88 1006.99 1007.10 1007.21 1007.31 1007.41 1007.52 1007.64 1007.77 1007.92 1008.07 1008.24 1008.40 1008.56 1008.71 1008.83 1008.94 1009.02 1009.08 1009.11
1007.23 1007.22 1007.23 1007.25 1007.27 1007.27 1007.25 1007.20 1007.13 1007.04 1006.93 1006.82 1006.70 1006.60 1006.52 1006.47 1006.46 1006.48 1006.54 1006.64 1006.76 1006.90 1007.05 1007.21 1007.36 1007.51 1007.65 1007.78 1007.90 1008.02 1008.13 1008.25 1008.38 1008.51 1008.65 1008.80 1008.95 1009.09 1009.22 1009.33 1009.42 1009.49 1009.53 1009.55
1007.21 1007.14 1007.08 1007.05 1007.03 1007.01 1006.99 1006.97 1006.94 1006.90 1006.85 1006.80 1006.76 1006.72 1006.70 1006.71 1006.74 1006.80 1006.89 1007.02 1007.16 1007.33 1007.50 1007.68 1007.85 1008.02 1008.17 1008.31 1008.44 1008.56 1008.67 1008.78 1008.90 1009.02 1009.15 1009.29 1009.43 1009.57 1009.70 1009.82 1009.91 1009.99 1010.04 1010.06
1007.32 1007.17 1007.03 1006.92 1006.84 1006.78 1006.74 1006.71 1006.71 1006.71 1006.72 1006.74 1006.77 1006.81 1006.87 1006.94 1007.04 1007.15 1007.29 1007.44 1007.62 1007.80 1007.99 1008.18 1008.36 1008.52 1008.68 1008.81 1008.93 1009.04 1009.15 1009.25 1009.36 1009.47 1009.60 1009.74 1009.89 1010.03 1010.18 1010.32 1010.44 1010.54 1010.61 1010.66
1007.50 1007.28 1007.06 1006.88 1006.73 1006.63 1006.56 1006.53 1006.54 1006.59 1006.66 1006.75 1006.85 1006.97 1007.11 1007.25 1007.40 1007.57 1007.75 1007.93 1008.12 1008.31 1008.50 1008.68 1008.86 1009.01 1009.15 1009.28 1009.39 1009.49 1009.58 1009.68 1009.79 1009.91 1010.04 1010.19 1010.36 1010.53 1010.71 1010.87 1011.03 1011.16 1011.26 1011.34
Thickness
5778 5793 5799 5798 5800 5808 5803 5803 5797 5802 5803 5812 5820 5822 5822 5821 5819 5816 5814 5813 5812 5810 5809 5807 5805 5802 5801 5797 5795 5792 5786 5782 5779 5777 5774 5770 5767 5764 5761 5758 5755 5752 5750 5748
5765 5782 5789 5789 5797 5801 5802 5806 5804 5803 5802 5823 5826 5823 5816 5813 5810 5806 5804 5804 5804 5803 5801 5799 5797 5795 5793 5790 5788 5786 5781 5777 5775 5771 5768 5765 5762 5759 5756 5753 5751 5748 5746 5743
5744 5765 5769 5765 5789 5796 5800 5806 5802 5792 5801 5813 5810 5808 5806 5804 5802 5798 5797 5796 5796 5795 5794 5793 5792 5790 5787 5785 5783 5779 5775 5771 5769 5765 5761 5759 5757 5753 5751 5748 5745 5742 5740 5738
5735 5739 5725 5767 5802 5802 5798 5801 5804 5800 5801 5803 5804 5804 5803 5801 5796 5792 5792 5790 5789 5789 5787 5787 5787 5785 5783 5780 5775 5771 5767 5763 5761 5757 5754 5752 5749 5747 5744 5742 5739 5736 5733 5731
5722 5721 5734 5764 5784 5790 5785 5784 5799 5794 5793 5796 5799 5793 5788 5793 5791 5787 5785 5783 5782 5783 5781 5780 5779 5777 5774 5770 5767 5763 5759 5756 5753 5751 5747 5744 5742 5739 5738 5735 5732 5730 5728 5725
5713 5709 5715 5749 5776 5785 5777 5763 5786 5787 5784 5783 5783 5767 5768 5782 5782 5779 5777 5775 5773 5774 5773 5770 5769 5768 5763 5760 5757 5754 5752 5749 5747 5744 5740 5737 5735 5732 5730 5727 5725 5723 5721 5718
5707 5707 5722 5751 5765 5765 5738 5747 5774 5778 5777 5774 5769 5768 5770 5774 5772 5769 5767 5765 5764 5764 5762 5760 5760 5757 5752 5750 5747 5747 5745 5742 5739 5736 5732 5729 5727 5724 5722 5719 5716 5714 5711 5709
5704 5699 5709 5743 5747 5738 5739 5758 5762 5763 5765 5762 5762 5763 5762 5762 5760 5758 5756 5755 5754 5752 5750 5750 5750 5746 5741 5738 5739 5737 5735 5731 5728 5725 5723 5720 5716 5714 5712 5709 5706 5703 5701 5698
5708 5707 5722 5733 5734 5739 5744 5745 5747 5750 5752 5751 5750 5749 5750 5749 5748 5747 5746 5744 5744 5741 5739 5738 5737 5735 5730 5729 5728 5726 5722 5718 5716 5714 5711 5709 5706 5703 5701 5699 5696 5694 5692 5690
5699 5707 5715 5721 5725 5729 5732 5734 5738 5740 5741 5741 5739 5738 5738 5737 5736 5735 5735 5733 5733 5730 5727 5725 5725 5724 5722 5719 5718 5715 5711 5708 5705 5703 5700 5698 5696 5694 5691 5688 5686 5684 5682 5681
5685 5694 5700 5706 5711 5715 5720 5725 5726 5728 5730 5729 5728 5727 5725 5725 5725 5725 5724 5723 5721 5718 5715 5714 5714 5713 5712 5710 5707 5703 5700 5698 5696 5694 5692 5688 5685 5683 5682 5679 5678 5674 5672 5672
5672 5683 5684 5689 5700 5705 5705 5709 5713 5714 5715 5718 5717 5716 5716 5714 5714 5714 5713 5711 5709 5707 5705 5704 5703 5701 5700 5699 5697 5693 5690 5688 5687 5684 5681 5678 5675 5672 5670 5669 5667 5665 5662 5661
5676 5679 5680 5685 5691 5694 5695 5698 5702 5703 5703 5703 5705 5706 5704 5702 5702 5701 5701 5699 5698 5697 5696 5694 5692 5689 5688 5688 5686 5683 5680 5678 5677 5676 5673 5670 5668 5664 5661 5658 5657 5655 5653 5651
5672 5672 5669 5674 5679 5684 5686 5689 5692 5692 5693 5693 5694 5694 5692 5691 5691 5690 5689 5688 5688 5687 5686 5684 5682 5679 5678 5678 5675 5673 5671 5669 5667 5665 5664 5662 5660 5659 5657 5654 5651 5648 5645 5642
5664 5665 5665 5669 5672 5675 5677 5679 5679 5680 5681 5682 5684 5682 5681 5679 5678 5678 5679 5680 5679 5677 5676 5674 5671 5669 5669 5667 5664 5663 5662 5660 5658 5657 5656 5654 5653 5652 5650 5648 5645 5643 5640 5636
5658 5660 5662 5661 5662 5664 5666 5668 5668 5669 5670 5671 5672 5672 5672 5671 5669 5669 5670 5670 5668 5666 5665 5663 5661 5660 5659 5657 5655 5654 5653 5651 5649 5649 5648 5647 5645 5644 5642 5640 5639 5636 5632 5629
5648 5649 5651 5652 5654 5655 5657 5658 5659 5660 5661 5662 5663 5664 5663 5661 5660 5659 5659 5660 5659 5658 5656 5654 5652 5652 5650 5648 5646 5646 5645 5643 5640 5641 5640 5638 5637 5635 5634 5632 5631 5628 5624 5621
5648 5649 5649 5648 5648 5649 5650 5651 5651 5652 5652 5654 5655 5655 5653 5651 5650 5650 5651 5651 5650 5647 5646 5646 5645 5643 5642 5641 5639 5638 5636 5634 5632 5631 5630 5628 5627 5626 5625 5623 5621 5618 5616 5614
5645 5645 5645 5645 5645 5644 5644 5644 5645 5644 5645 5645 5645 5644 5644 5644 5644 5643 5643 5641 5639 5637 5636 5637 5635 5634 5633 5631 5630 5629 5628 5626 5624 5623 5622 5619 5618 5618 5616 5615 5613 5610 5608 5606
5640 5640 5640 5640 5641 5640 5640 5641 5640 5639 5639 5639 5637 5636 5635 5636 5636 5636 5635 5633 5632 5632 5632 5630 5628 5626 5625 5624 5622 5623 5622 5619 5617 5615 5614 5612 5610 5609 5608 5606 5604 5602 5601 5598
5634 5635 5635 5635 5635 5636 5636 5636 5634 5632 5632 5631 5630 5629 5629 5629 5629 5628 5627 5625 5625 5626 5624 5621 5621 5620 5619 5616 5614 5616 5615 5612 5610 5609 5607 5605 5603 5601 5600 5598 5596 5594 5592 5589
5629 5630 5631 5631 5630 5629 5629 5629 5628 5626 5626 5625 5625 5624 5623 5621 5621 5621 5620 5620 5619 5617 5617 5617 5615 5612 5611 5609 5610 5610 5608 5606 5604 5603 5601 5599 5597 5594 5592 5591 5589 5587 5584 5582
5626 5627 5626 5625 5624 5623 5623 5623 5623 5621 5620 5619 5619 5618 5617 5616 5616 5615 5613 5614 5615 5611 5611 5611 5608 5605 5603 5605 5605 5604 5602 5600 5598 5597 5595 5593 5591 5589 5586 5584 5583 5580 5578 5575
5622 5622 5621 5621 5621 5618 5617 5619 5619 5618 5618 5616 5615 5614 5613 5611 5610 5611 5610 5608 5607 5605 5606 5603 5601 5599 5598 5599 5599 5598 5596 5594 5593 5591 5589 5587 5586 5583 5581 5578 5575 5573 5570 5567
5617 5617 5617 5616 5615 5614 5614 5614 5614 5614 5613 5612 5611 5610 5610 5609 5607 5607 5606 5604 5601 5600 5600 5597 5595 5594 5594 5594 5594 5592 5590 5589 5587 5585 5583 5581 5579 5577 5574 5571 5568 5565 5562 5558
5612 5612 5612 5612 5612 5612 5611 5611 5610 5609 5608 5606 5605 5605 5604 5604 5604 5602 5600 5599 5598 5594 5595 5594 5592 5590 5590 5589 5588 5587 5585 5584 5582 5579 5576 5574 5571 5568 5565 5562 5559 5556 5552 5549
5609 5609 5608 5609 5609 5609 5609 5607 5606 5605 5604 5603 5601 5600 5600 5599 5598 5597 5596 5594 5593 5592 5591 5590 5589 5587 5586 5584 5583 5581 5579 5577 5574 5571 5568 5564 5561 5558 5556 5553 5550 5546 5543 5539